Location: The Jewett Observatory
(46.7288°N, 117.1525°W)
Time: 19:20:41
(UTC-07:00)

Amateur Radio Satellites - All Passes

Search period start: 20 August 2014 18:50
Search period end: 21 August 2014 18:50
Location: The Jewett Observatory, 46.7288°N, 117.1525°W

Satellite Date Start Highest point End Downlink Frequencies (MHz)
Time Altitude Azimuth
RS-15 20 Aug 18:54:01 19:05:01 75° 239° (WSW) 19:16:25 29.354 - 29.394 USB, Beacon 29.352 USB
PCSat 20 Aug 19:09:38 19:14:39 40° 114° (ESE) 19:19:42 145.825 MHz
Hamsat 20 Aug 19:10:29 19:13:09 16° 270° (W) 19:15:51 145.90 MHz
STRAND 1 20 Aug 19:11:53 19:16:39 39° 98° (E) 19:21:23 ?
OPAL 20 Aug 19:27:05 19:29:25 13° 309° (NW) 19:31:45 ?
HO-68 20 Aug 19:28:00 19:33:55 29° 56° (NE) 19:39:52 435.675 MHz FM
SO-67 20 Aug 19:45:39 19:48:42 29° 264° (W) 19:51:47 435.3500 MHz FM
UKube-1 20 Aug 20:06:28 20:09:29 19° 62° (ENE) 20:12:31 145.840 MHz, 145.915 MHz
Oscar 10/S400 20 Aug 20:17:16 20:36:36 45° 156° (SSE) 21:59:20 145.825 - 145.975 CW/USB, Beacon 145.810 USB
Sapphire 20 Aug 20:21:48 20:27:10 64° 306° (NW) 20:32:35 437.095 MHz 1200 baud AX-25 AFSK
Oscar 11 20 Aug 20:24:38 20:27:22 17° 61° (ENE) 20:30:06 145.825 FM, Beacon 2401.500 USB
ISS 20 Aug 20:26:58 20:30:18 71° 210° (SSW) 20:33:37 145.800 FM
STRAND 1 20 Aug 20:51:18 20:55:44 31° 296° (WNW) 21:00:09 ?
PCSat 20 Aug 20:53:04 20:58:06 38° 313° (NW) 21:03:11 145.825 MHz
RS-15 20 Aug 21:08:22 21:15:27 20° 261° (W) 21:22:43 29.354 - 29.394 USB, Beacon 29.352 USB
HO-68 20 Aug 21:14:01 21:21:08 68° 256° (WSW) 21:28:16 435.675 MHz FM
UKube-1 20 Aug 21:41:05 21:45:20 52° 259° (W) 21:49:36 145.840 MHz, 145.915 MHz
FUNcube-1 20 Aug 21:54:32 21:58:31 48° 71° (ENE) 22:02:34 145.950 - 145.970 MHz USB
Oscar 11 20 Aug 21:58:50 22:03:06 60° 259° (W) 22:07:25 145.825 FM, Beacon 2401.500 USB
ISS 20 Aug 22:05:04 22:06:31 12° 227° (SW) 22:07:57 145.800 FM
Sapphire 20 Aug 22:08:12 22:11:41 17° 329° (NNW) 22:15:12 437.095 MHz 1200 baud AX-25 AFSK
PCSat 20 Aug 22:40:56 22:43:08 12° 337° (NNW) 22:45:21 145.825 MHz
HO-68 20 Aug 23:07:24 23:10:10 12° 276° (W) 23:12:57 435.675 MHz FM
FUNcube-1 20 Aug 23:32:31 23:35:14 17° 269° (W) 23:37:58 145.950 - 145.970 MHz USB
AO-40 20 Aug 23:34:53 03:21:02 27° 141° (SE) 04:49:51 Beacon 2401.320
MaSat-1 20 Aug 23:36:38 23:40:26 21° 42° (NE) 23:43:59 437.345 MHz
KITSAT 1 21 Aug 00:52:50 00:59:49 33° 108° (ESE) 01:06:48 435.175 FM
Oscar 19 21 Aug 01:02:08 01:04:14 12° 87° (E) 01:06:18 437.125 CW, 437.150 USB
MaSat-1 21 Aug 01:13:13 01:18:12 75° 244° (WSW) 01:22:36 437.345 MHz
Saudisat 1A 21 Aug 01:30:28 01:34:44 52° 121° (ESE) 01:39:03 436.775 MHz
Oscar 16 21 Aug 01:33:25 01:37:40 25° 93° (E) 01:41:53 437.025 USB, Beacon 2401.1428
AO-27 21 Aug 01:36:29 01:38:00 11° 86° (E) 01:39:32 436.795 MHz FM
Sapphire 21 Aug 01:41:42 01:43:48 12° 22° (NNE) 01:45:54 437.095 MHz 1200 baud AX-25 AFSK
PCSat 21 Aug 02:11:48 02:15:14 17° 31° (NNE) 02:18:41 145.825 MHz
JAS-1B 21 Aug 02:15:43 02:21:59 27° 88° (E) 02:27:25 435.800 - 435.900 CW/SSB
Oscar 19 21 Aug 02:39:05 02:44:20 87° 105° (ESE) 02:49:32 437.125 CW, 437.150 USB
Gurwin Techsat 1B 21 Aug 02:41:07 02:45:05 21° 91° (E) 02:49:02 435.225 FM
KITSAT 1 21 Aug 02:46:39 02:54:42 67° 309° (NW) 03:02:48 435.175 FM
ITAMSAT 1 21 Aug 02:47:05 02:52:06 48° 99° (E) 02:57:05 435.822 SSB
AO-Echo 21 Aug 02:52:44 02:57:27 59° 101° (E) 03:02:04 ?
Uribyol 2 21 Aug 02:59:47 03:04:57 66° 102° (ESE) 03:10:06 436.500 FM
Saudisat 1A 21 Aug 03:10:49 03:14:35 27° 321° (NW) 03:18:22 436.775 MHz
Oscar 16 21 Aug 03:12:15 03:17:15 48° 291° (WNW) 03:22:14 437.025 USB, Beacon 2401.1428
AO-27 21 Aug 03:13:07 03:18:20 82° 104° (ESE) 03:23:31 436.795 MHz FM
AO-7 21 Aug 03:19:16 03:21:44 11° 83° (E) 03:24:11 29.400 - 29.500 MHz
Sapphire 21 Aug 03:23:50 03:28:52 37° 46° (NE) 03:33:53 437.095 MHz 1200 baud AX-25 AFSK
OPAL 21 Aug 03:25:48 03:30:28 41° 65° (ENE) 03:35:13 ?
TMSAT-1 21 Aug 03:39:00 03:44:08 48° 99° (E) 03:49:14 436.925 FM
PCSat 21 Aug 03:54:23 03:59:47 62° 53° (NE) 04:05:09 145.825 MHz
JAS-1B 21 Aug 04:05:37 04:13:22 63° 292° (WNW) 04:19:48 435.800 - 435.900 CW/SSB
Oscar 19 21 Aug 04:19:57 04:22:59 16° 303° (WNW) 04:26:00 437.125 CW, 437.150 USB
Gurwin Techsat 1B 21 Aug 04:20:14 04:25:27 59° 289° (WNW) 04:30:39 435.225 FM
ITAMSAT 1 21 Aug 04:27:06 04:31:20 26° 298° (WNW) 04:35:34 435.822 SSB
AO-Echo 21 Aug 04:32:29 04:35:49 19° 300° (WNW) 04:39:05 ?
Uribyol 2 21 Aug 04:40:16 04:43:57 20° 301° (WNW) 04:47:39 436.500 FM
KITSAT 1 21 Aug 04:45:11 04:51:44 26° 335° (NNW) 04:58:18 435.175 FM
AO-27 21 Aug 04:54:02 04:57:13 17° 303° (WNW) 05:00:24 436.795 MHz FM
STRAND 1 21 Aug 04:55:14 04:57:19 13° 54° (NE) 04:59:24 ?
OPAL 21 Aug 05:05:08 05:09:28 29° 263° (W) 05:13:52 ?
Sapphire 21 Aug 05:07:17 05:12:23 42° 246° (WSW) 05:17:27 437.095 MHz 1200 baud AX-25 AFSK
AO-7 21 Aug 05:08:06 05:16:19 60° 103° (ESE) 05:24:27 29.400 - 29.500 MHz
Uosat F 21 Aug 05:12:04 05:17:05 70° 103° (ESE) 05:22:03 435.120 FM
TMSAT-1 21 Aug 05:19:26 05:23:48 27° 298° (WNW) 05:28:09 436.925 FM
PCSat 21 Aug 05:38:35 05:42:46 23° 252° (WSW) 05:46:56 145.825 MHz
JAS-2 21 Aug 05:45:04 05:48:10 16° 89° (E) 05:51:15 435.800 - 435.900 CW/SSB, 435.910 FM
JAS-1B 21 Aug 05:57:51 06:02:10 16° 317° (NW) 06:06:08 435.800 - 435.900 CW/SSB
Gurwin Techsat 1B 21 Aug 06:03:36 06:04:21 10° 309° (NW) 06:05:06 435.225 FM
STRAND 1 21 Aug 06:30:33 06:35:39 75° 73° (ENE) 06:40:46 ?
SO-50 21 Aug 06:41:56 06:46:22 67° 123° (ESE) 06:50:57 436.795 FM
KITSAT 1 21 Aug 06:44:51 06:50:23 19° 5° (N) 06:55:54 435.175 FM
Hamsat 21 Aug 06:51:17 06:55:41 77° 102° (ESE) 07:00:02 145.90 MHz
Uosat F 21 Aug 06:52:00 06:55:21 18° 301° (WNW) 06:58:41 435.120 FM
AO-7 21 Aug 07:01:22 07:08:47 38° 304° (NW) 07:16:10 29.400 - 29.500 MHz
SO-67 21 Aug 07:07:08 07:09:20 16° 92° (E) 07:11:31 435.3500 MHz FM
RS-15 21 Aug 07:19:06 07:21:31 11° 92° (E) 07:23:55 29.354 - 29.394 USB, Beacon 29.352 USB
JAS-2 21 Aug 07:28:44 07:33:55 69° 288° (WNW) 07:39:06 435.800 - 435.900 CW/SSB, 435.910 FM
UOSAT-12 21 Aug 08:00:16 08:04:29 36° 117° (ESE) 08:08:46 437.025 FM, 437.400 FM
STRAND 1 21 Aug 08:12:27 08:15:25 15° 271° (W) 08:18:25 ?
Saudisat 1A 21 Aug 08:15:36 08:18:51 20° 34° (NNE) 08:22:05 436.775 MHz
SO-50 21 Aug 08:23:43 08:27:23 23° 324° (NW) 08:31:08 436.795 FM
Hamsat 21 Aug 08:28:54 08:31:04 14° 300° (WNW) 08:33:13 145.90 MHz
SO-67 21 Aug 08:39:20 08:42:33 35° 289° (WNW) 08:45:44 435.3500 MHz FM
HO-68 21 Aug 08:39:34 08:44:41 21° 89° (E) 08:49:45 435.675 MHz FM
KITSAT 1 21 Aug 08:41:27 08:48:40 34° 34° (NE) 08:55:49 435.175 FM
AO-7 21 Aug 08:56:59 08:59:13 11° 328° (NNW) 09:01:27 29.400 - 29.500 MHz
JAS-2 21 Aug 09:16:51 09:18:04 11° 308° (NW) 09:19:16 435.800 - 435.900 CW/SSB, 435.910 FM
RS-15 21 Aug 09:20:29 09:31:06 55° 115° (ESE) 09:41:35 29.354 - 29.394 USB, Beacon 29.352 USB
UKube-1 21 Aug 09:27:05 09:30:23 21° 93° (E) 09:33:40 145.840 MHz, 145.915 MHz
UOSAT-12 21 Aug 09:40:17 09:44:37 38° 317° (NW) 09:49:03 437.025 FM, 437.400 FM
Oscar 11 21 Aug 09:44:16 09:47:34 21° 92° (E) 09:50:50 145.825 FM, Beacon 2401.500 USB
Saudisat 1A 21 Aug 09:54:34 09:59:00 85° 234° (SW) 10:03:25 436.775 MHz
HO-68 21 Aug 10:26:02 10:33:13 84° 289° (WNW) 10:40:22 435.675 MHz FM
KITSAT 1 21 Aug 10:36:51 10:44:59 83° 238° (WSW) 10:53:02 435.175 FM
UKube-1 21 Aug 11:02:40 11:06:47 42° 291° (WNW) 11:10:53 145.840 MHz, 145.915 MHz
FUNcube-1 21 Aug 11:16:33 11:20:58 73° 102° (ESE) 11:25:27 145.950 - 145.970 MHz USB
JAS-1B 21 Aug 11:17:54 11:21:08 12° 38° (NE) 11:24:17 435.800 - 435.900 CW/SSB
Oscar 11 21 Aug 11:19:48 11:23:57 44° 290° (WNW) 11:28:05 145.825 FM, Beacon 2401.500 USB
UOSAT-12 21 Aug 11:24:08 11:26:07 12° 340° (NNW) 11:28:06 437.025 FM, 437.400 FM
RS-15 21 Aug 11:32:50 11:43:34 55° 320° (NW) 11:54:18 29.354 - 29.394 USB, Beacon 29.352 USB
Saudisat 1A 21 Aug 11:36:39 11:37:51 11° 252° (WSW) 11:39:03 436.775 MHz
SO-50 21 Aug 11:52:12 11:52:32 10° 14° (NNE) 11:52:51 436.795 FM
HO-68 21 Aug 12:15:00 12:19:57 21° 309° (NW) 12:24:55 435.675 MHz FM
Oscar 19 21 Aug 12:20:56 12:25:05 25° 62° (ENE) 12:29:16 437.125 CW, 437.150 USB
ITAMSAT 1 21 Aug 12:31:18 12:34:21 16° 56° (ENE) 12:37:23 435.822 SSB
AO-Echo 21 Aug 12:32:02 12:35:08 16° 59° (ENE) 12:38:11 ?
KITSAT 1 21 Aug 12:33:52 12:39:11 20° 258° (WSW) 12:44:31 435.175 FM
Uribyol 2 21 Aug 12:43:06 12:46:50 21° 59° (ENE) 12:50:35 436.500 FM
Oscar 16 21 Aug 12:53:01 12:57:55 47° 69° (ENE) 13:02:52 437.025 USB, Beacon 2401.1428
FUNcube-1 21 Aug 12:54:28 12:56:51 15° 300° (WNW) 12:59:16 145.950 - 145.970 MHz USB
AO-27 21 Aug 12:56:08 13:00:19 25° 62° (ENE) 13:04:29 436.795 MHz FM
JAS-1B 21 Aug 13:00:26 13:09:18 40° 60° (ENE) 13:17:35 435.800 - 435.900 CW/SSB
TMSAT-1 21 Aug 13:25:30 13:28:43 17° 57° (ENE) 13:31:56 436.925 FM
SO-50 21 Aug 13:30:44 13:34:44 26° 38° (NE) 13:38:47 436.795 FM
RS-15 21 Aug 13:49:36 13:58:57 31° 352° (N) 14:08:25 29.354 - 29.394 USB, Beacon 29.352 USB
Oscar 19 21 Aug 13:59:10 14:04:09 50° 261° (W) 14:09:11 437.125 CW, 437.150 USB
Gurwin Techsat 1B 21 Aug 14:04:44 14:09:43 43° 68° (ENE) 14:14:44 435.225 FM
ITAMSAT 1 21 Aug 14:07:58 14:13:10 86° 255° (WSW) 14:18:23 435.822 SSB
AO-Echo 21 Aug 14:08:08 14:13:19 81° 256° (WSW) 14:18:22 ?
AO-7 21 Aug 14:19:44 14:26:23 28° 50° (NE) 14:33:01 29.400 - 29.500 MHz
Uribyol 2 21 Aug 14:20:45 14:25:52 64° 258° (WSW) 14:31:00 436.500 FM
Oscar 16 21 Aug 14:33:18 14:37:30 25° 267° (W) 14:41:45 437.025 USB, Beacon 2401.1428
AO-27 21 Aug 14:34:30 14:39:32 50° 260° (W) 14:44:36 436.795 MHz FM
UOSAT-12 21 Aug 14:47:25 14:50:38 18° 29° (NNE) 14:53:49 437.025 FM, 437.400 FM
ISS 21 Aug 14:47:35 14:50:46 46° 146° (SE) 14:53:59 145.800 FM
JAS-1B 21 Aug 14:49:29 14:59:20 66° 259° (WSW) 15:08:39 435.800 - 435.900 CW/SSB
Uosat F 21 Aug 14:51:22 14:54:56 20° 59° (ENE) 14:58:29 435.120 FM
TMSAT-1 21 Aug 15:02:39 15:07:57 85° 255° (WSW) 15:13:17 436.925 FM
MaSat-1 21 Aug 15:04:49 15:08:57 30° 106° (ESE) 15:13:22 437.345 MHz
SO-50 21 Aug 15:10:57 15:15:40 63° 237° (WSW) 15:20:27 436.795 FM
Gurwin Techsat 1B 21 Aug 15:45:17 15:49:50 29° 266° (W) 15:54:26 435.225 FM
ITAMSAT 1 21 Aug 15:51:31 15:53:26 12° 273° (W) 15:55:22 435.822 SSB
AO-Echo 21 Aug 15:51:34 15:52:50 11° 274° (W) 15:54:06 ?
JAS-2 21 Aug 16:02:06 16:04:59 14° 54° (NE) 16:07:45 435.800 - 435.900 CW/SSB, 435.910 FM
RS-15 21 Aug 16:05:04 16:15:10 39° 27° (NNE) 16:25:30 29.354 - 29.394 USB, Beacon 29.352 USB
AO-7 21 Aug 16:09:55 16:18:18 85° 251° (WSW) 16:26:42 29.400 - 29.500 MHz
ISS 21 Aug 16:24:20 16:27:33 45° 345° (NNW) 16:30:47 145.800 FM
UOSAT-12 21 Aug 16:26:53 16:31:38 71° 51° (NE) 16:36:19 437.025 FM, 437.400 FM
Uosat F 21 Aug 16:28:17 16:33:16 64° 258° (WSW) 16:38:16 435.120 FM
MaSat-1 21 Aug 16:41:12 16:45:53 44° 307° (NW) 16:50:53 437.345 MHz
JAS-1B 21 Aug 16:45:41 16:51:20 17° 278° (W) 16:56:51 435.800 - 435.900 CW/SSB
TMSAT-1 21 Aug 16:46:39 16:48:41 12° 274° (W) 16:50:43 436.925 FM
OPAL 21 Aug 17:11:02 17:16:11 57° 103° (ESE) 17:21:19 ?
JAS-2 21 Aug 17:42:40 17:49:16 70° 72° (ENE) 17:55:05 435.800 - 435.900 CW/SSB, 435.910 FM
Hamsat 21 Aug 17:47:10 17:51:26 77° 75° (ENE) 17:55:46 145.90 MHz
ISS 21 Aug 18:01:39 18:04:45 34° 5° (N) 18:07:51 145.800 FM
AO-7 21 Aug 18:06:35 18:12:16 20° 271° (W) 18:17:58 29.400 - 29.500 MHz
UOSAT-12 21 Aug 18:08:09 18:11:16 18° 249° (WSW) 18:14:20 437.025 FM, 437.400 FM
Sapphire 21 Aug 18:10:45 18:14:00 16° 105° (ESE) 18:17:15 437.095 MHz 1200 baud AX-25 AFSK
RS-15 21 Aug 18:17:56 18:29:02 90° 56° (ENE) 18:40:32 29.354 - 29.394 USB, Beacon 29.352 USB
MaSat-1 21 Aug 18:22:32 18:24:24 12° 328° (NNW) 18:26:17 437.345 MHz
STRAND 1 21 Aug 18:39:08 18:42:52 20° 91° (E) 18:46:35 ?
PCSat 21 Aug 18:39:34 18:44:13 30° 111° (ESE) 18:48:55 145.825 MHz
